Reflectivity
33 33 31 35 34 26 13 30 37 32 20 19 8 -5 -2 -20 -20 -10 9 5 -20 -20 -20 -20 -20 -20 -20 -20 -20 -20 -20 -20 -20 6 -20 -20 -20 -20 -20 -20 -20 -20 -20
34 33 35 40 44 31 12 29 33 25 18 -3 -3 -20 -2 -7 -16 1 7 -20 -20 -20 -20 -20 -20 -20 -20 -20 -20 -20 15 8 -20 -20 -20 -20 -20 -20 -20 -20 -20 -20 -20
35 39 32 37 38 41 40 32 32 30 28 16 11 -0 -7 -20 -4 5 11 7 -13 -8 15 31 30 26 -20 -20 -20 25 22 26 -12 -9 -6 1 -20 -20 -20 -20 -20 -20 -20
30 36 29 34 31 29 40 39 32 33 26 27 14 6 27 -2 2 16 4 7 9 8 29 30 34 27 29 22 25 -17 27 -6 24 26 7 -20 -16 -20 -20 -20 -20 -20 -20
28 29 37 36 38 35 31 20 17 16 27 39 31 34 39 36 26 21 15 32 28 14 15 20 36 28 26 32 45 42 32 22 20 28 21 -2 3 -20 -20 -20 -20 -20 -20
15 24 22 23 19 29 34 17 10 13 6 33 34 33 29 24 35 28 27 30 29 24 25 16 20 27 29 31 38 38 35 34 35 27 25 13 0 -20 -20 -20 -20 -20 -20
15 -7 7 1 5 8 7 14 6 3 4 11 23 14 24 32 30 35 20 15 20 20 22 16 11 14 26 19 25 17 25 34 16 32 28 15 28 23 11 -6 -20 -20 -20
-4 -19 -19 -20 -18 -9 -6 -18 -8 -12 -17 -7 -13 -11 1 12 -4 0 11 26 27 -10 28 -17 7 25 15 8 18 7 5 -2 -10 -6 -19 -18 -20 -19 -20 -20 -20 -20 -20
-20 1 3 -20 -20 -20 -20 -20 -20 -20 -19 -20 -20 -16 24 23 -4 -20 -20 -20 -20 -20 -20 -20 -20 -3 21 -20 -20 -20 -20 -20 -20 -6 -6 -18 -20 -20 -5 -19 -16 -20 -20
-16 -20 -20 -20 -20 -20 -20 -20 -20 -20 -20 -20 -20 -20 -20 -20 -20 -20 -20 5 -20 -20 -20 -20 9 -20 -20 -20 -19 -13 -7 -7 -20 -20 -18 -20 -20 -20 -20 -11 -18 -16 -6
-20 -20 -20 -20 -20 -20 -20 -20 -20 -20 -20 -20 -20 -20 -20 -20 -20 -20 -20 -20 -20 -20 -20 -20 -20 -20 -20 -20 -20 -20 -20 -20 -20 -16 -10 -13 -14 -12 -20 -20 -20 -19 5
-20 -20 -20 -20 -20 -20 -20 -20 -20 -20 -20 -20 -20 -20 -20 -20 -20 -20 -20 -20 -20 -16 -20 -20 -20 -20 -20 -20 -20 -20 -20 -20 -20 -20 -20 -20 -20 -20 -20 -20 -20 -20 -20
-20 -20 -20 -20 -20 -20 -20 -20 -20 -20 -20 -20 -20 -20 -20 -20 -20 -20 -20 -20 -20 -20 -20 -20 -20 -20 -20 -20 -20 -20 -20 -20 -20 -20 -20 -20 -20 -20 -20 -20 -20 -20 -20
-20 -20 -20 -20 -20 -20 -20 -20 -20 -20 -20 -20 -20 -20 -20 -20 -20 -20 -20 -20 -20 -20 -20 -20 -20 -20 -20 -20 -20 -20 -20 -20 -20 -20 -20 -20 -20 -20 -20 -20 -20 -20 -20
-20 -20 -20 -20 -20 -20 -20 -20 -20 -20 -20 -20 -20 -20 -20 -20 -20 -20 -20 -20 -20 -20 -20 -20 -20 -20 -20 -20 -20 -20 -20 -20 -20 -20 -20 -20 -20 -20 -20 -20 -20 -20 -20
-20 -20 -20 -20 -20 -20 -20 -20 -20 -20 -20 -20 -20 -20 -20 -20 -20 -20 -20 -20 -20 -20 -20 -20 -20 -20 -20 -20 -20 -20 -20 -20 -20 -20 -20 -20 -20 -20 -20 -20 -20 -20 -20
-20 -20 -20 -20 -20 -20 -20 -20 -20 -20 -20 -20 -20 -20 -20 -20 -20 -20 -20 -20 -20 -20 -20 -20 -20 -20 -20 -20 -20 -20 -20 -20 -20 -20 -20 -20 -20 -20 -20 -20 -20 -20 -13
-20 -20 -20 -20 -20 -20 -20 -20 -20 -20 -20 -20 -20 -20 -20 -20 -20 -20 -20 -20 -20 -20 -20 -20 -20 -20 -20 -20 -20 -20 -18 -20 -20 -20 -20 -20 -20 -20 -20 -20 -20 -20 -20
-20 -20 -20 -20 -20 -20 -20 -20 -20 -20 -20 -20 -20 -20 -20 -20 -20 -20 -20 -20 -20 -20 -20 -20 -20 -20 -20 -20 -20 -20 -20 -20 -20 -20 -20 -20 -20 -16 -20 -20 -20 -20 -20
-20 -20 -20 -20 -20 -20 -20 -20 -20 -20 -20 -20 -20 -20 -20 -20 -20 -20 -20 -20 -20 -20 -20 -20 -20 -20 -20 -20 -19 -20 -20 -20 -20 -20 -20 -20 -14 -2 -20 -20 -20 -20 -20
-20 -20 -20 -20 -20 -20 -20 -20 -20 -20 -20 -20 -20 -20 -20 -20 -11 -19 -20 -20 -20 -20 -20 -20 -20 -20 -20 -20 -5 -19 -20 -20 -20 -20 -20 -20 -5 -20 -20 -20 -20 -20 -20
-20 -20 -20 -20 -20 -20 -20 -20 -20 -20 -20 -20 -20 -20 -20 -20 -20 -3 -8 -20 -20 -20 -20 -20 -20 -20 -20 -20 -8 -4 -20 -20 -20 -20 -20 -20 -20 -20 -20 -20 -20 -20 -20
-20 -20 -20 -2 6 -13 -12 -20 2 -20 -20 -20 -20 -20 -20 -20 -20 -20 -19 -20 -20 -20 -20 -20 -20 -20 -20 -20 -20 -8 -4 -8 -20 -20 -20 -20 -20 -20 -20 -20 -20 -20 -20
-15 -9 -20 -3 -17 8 1 -0 -20 -4 -19 -20 -13 -1 -20 -20 -20 -20 -18 -20 -20 -20 -20 -20 -20 -20 -20 -20 -20 -20 2 2 -20 -20 -20 -20 -20 -20 -20 -20 -20 -20 -20
-20 -20 -17 -11 -11 -20 -2 16 -1 11 -9 -20 12 20 -20 13 -20 -20 -20 0 -13 3 6 2 14 3 -20 -13 -20 -20 -20 -20 -20 -20 -20 -20 -20 -20 -20 -20 -20 -20 -20
-20 -20 4 3 -20 -0 5 12 25 22 -16 -17 -9 18 1 15 0 -20 16 11 16 24 27 29 23 1 9 16 -10 -15 -19 0 -16 -12 -20 -20 -20 -20 -9 -12 -20 -20 -20
Wind_Speed
13 14 13 3 8 11 11 14 9 5 7 8 7 6 7 6 6 6 7 9 8 10 10 8 7 8 8 10 10 8 9 7 5 5 5 4 4 5 3 3 2 3 4
4 8 9 8 9 6 3 4 4 5 4 3 4 3 4 5 5 6 8 10 10 9 10 10 8 9 8 11 10 10 8 7 7 5 2 4 3 4 1 1 2 4 3
8 8 10 13 11 8 7 5 4 7 9 1 1 2 1 3 5 5 5 7 7 7 9 8 7 7 8 9 10 11 11 6 3 5 4 2 3 2 3 1 1 1 1
8 3 12 15 11 13 11 13 13 10 11 10 5 11 7 6 6 4 5 5 6 9 7 6 7 5 1 5 2 3 2 3 3 1 1 3 3 4 4 3 2 1 1
8 10 8 3 7 15 15 15 15 13 14 10 12 7 10 9 3 3 4 5 6 7 7 7 5 7 7 6 6 5 6 3 2 2 2 3 2 5 7 8 4 3 3
7 7 7 9 10 7 9 13 16 16 17 18 20 18 19 15 11 7 6 5 5 4 5 8 9 10 10 9 8 7 4 3 1 1 3 3 3 3 5 6 7 6 3
8 8 7 5 7 9 8 8 10 12 12 13 14 16 18 17 12 12 9 7 5 4 7 7 9 8 9 10 9 10 9 7 6 6 5 3 5 3 4 5 6 5 4
4 6 5 4 3 1 4 6 8 9 10 11 11 10 10 5 8 8 7 6 6 7 9 7 8 8 9 8 6 6 6 7 6 6 4 3 4 5 6 5 4 4 6
9 9 8 7 5 3 2 5 6 7 8 8 8 9 8 9 8 9 9 7 8 7 9 8 9 7 7 8 9 7 7 6 4 4 3 4 3 3 5 5 5 5 4
11 9 7 7 6 4 2 2 4 5 7 8 7 5 6 6 6 7 8 9 10 12 10 9 10 10 9 9 8 6 7 7 5 3 5 5 4 5 4 4 5 5 6
7 6 6 5 6 5 5 4 2 4 5 5 5 5 6 6 7 7 8 9 10 11 10 12 11 10 9 8 7 7 7 7 6 5 6 6 5 3 3 3 3 3 3
10 8 7 6 6 7 6 5 2 2 4 5 5 5 5 5 6 7 8 9 10 10 13 12 11 11 10 9 9 8 5 7 8 7 6 6 4 6 5 4 4 4 3
10 10 11 11 10 8 8 7 5 4 2 3 5 5 5 6 6 7 8 9 11 12 11 11 11 11 10 9 7 7 7 6 6 6 6 7 8 6 4 4 4 3 3
11 10 9 9 9 9 8 7 7 7 5 4 5 5 6 7 7 8 9 10 11 12 12 11 11 10 9 8 8 7 6 5 5 6 6 5 5 5 4 4 4 3 3
13 12 11 9 9 10 9 8 7 5 4 6 6 7 6 6 7 8 10 10 10 10 10 10 9 9 8 7 9 8 8 8 8 6 5 5 4 2 1 3 4 4 3
11 10 11 13 12 10 9 9 8 7 5 7 8 7 7 7 9 10 11 10 10 11 11 12 11 11 6 10 10 9 8 7 6 6 4 4 4 4 3 3 1 2 4
12 13 13 12 11 12 13 12 10 9 9 8 8 8 9 10 10 10 10 11 11 10 10 11 10 10 9 15 14 11 7 7 7 8 7 5 4 5 5 6 6 4 2
14 14 13 14 14 13 12 12 13 12 11 10 11 10 11 12 11 12 13 12 11 13 12 12 12 11 9 17 15 13 5 4 6 7 7 6 5 5 5 4 3 2 1
15 15 16 17 17 17 16 14 13 13 12 13 14 12 12 13 12 13 13 11 11 11 11 11 12 12 10 15 15 12 8 7 7 5 5 5 6 7 7 5 4 4 3
13 15 16 17 17 18 17 16 15 15 15 14 13 12 13 15 16 15 15 12 11 9 8 9 10 11 11 16 16 12 5 7 5 6 5 7 6 10 11 6 6 5 5
18 18 18 16 17 16 17 19 18 17 15 15 13 12 12 14 16 14 12 11 9 9 9 10 9 10 10 12 17 14 6 5 6 5 5 5 11 10 11 7 6 4 7
18 19 17 18 19 19 17 18 18 16 16 15 13 13 13 11 10 14 12 12 11 10 10 10 8 7 9 10 16 16 11 8 7 7 6 7 13 12 11 9 5 7 8
15 12 14 17 15 17 15 17 18 18 17 15 15 13 12 13 12 13 13 12 12 10 10 9 9 9 8 8 14 16 17 13 8 6 7 10 12 12 10 10 9 10 5
16 17 17 16 17 14 19 19 20 19 18 16 16 12 11 13 13 11 11 11 12 11 10 10 9 10 9 8 9 9 10 14 9 8 7 9 9 9 7 8 7 5 5
15 16 16 15 18 19 19 19 18 17 14 14 12 10 9 12 11 11 11 12 12 13 13 12 10 11 10 10 12 11 9 9 10 9 6 6 6 7 6 6 6 6 5
15 14 15 16 18 18 21 19 16 13 10 11 8 7 7 8 8 8 7 7 10 12 11 13 10 5 7 16 18 17 16 16 19 6 7 7 8 8 8 7 7 6 7
Wind_Direction
212 158 71 68 145 157 153 167 201 252 195 166 164 186 204 196 196 197 201 204 209 209 217 221 219 212 214 214 213 211 211 215 223 240 236 245 240 272 284 299 328 40 23
150 127 113 104 269 144 154 139 196 270 206 212 170 178 182 216 220 192 199 214 216 217 233 228 222 217 226 220 215 211 206 219 203 236 261 277 232 141 54 52 30 31 16
142 157 161 172 184 194 220 221 241 280 288 358 220 145 181 191 181 198 191 205 205 218 215 239 234 244 239 235 219 219 220 216 188 235 273 262 255 313 146 160 334 319 39
107 149 195 190 193 195 194 215 209 213 265 293 281 229 245 239 223 179 148 155 188 205 192 176 218 213 268 276 178 80 5 21 252 180 313 277 297 260 273 180 201 261 215
139 150 167 189 204 203 206 220 223 206 212 209 248 257 265 267 262 220 141 152 182 189 162 158 181 121 113 84 32 66 47 47 29 11 11 246 217 256 261 273 213 224 223
167 170 149 162 168 193 188 209 219 223 223 205 218 224 228 233 235 221 189 174 165 165 142 152 148 136 142 139 119 87 80 63 60 305 265 269 254 227 241 250 266 269 199
182 160 140 160 164 178 198 198 201 223 220 223 237 225 230 236 216 214 223 173 166 165 161 161 152 153 146 136 147 150 156 182 170 186 209 216 224 225 246 278 270 277 204
123 88 70 76 99 207 199 199 199 208 203 206 211 222 221 205 215 200 194 190 187 160 163 169 165 157 154 158 152 151 161 181 198 198 220 236 246 236 214 215 236 252 252
58 55 47 38 44 42 278 245 206 224 223 211 203 206 202 204 209 194 184 177 162 153 161 159 155 149 161 166 171 171 168 187 181 181 195 224 222 231 235 226 218 222 262
55 48 41 20 19 22 18 295 248 229 219 212 206 195 191 193 191 185 176 171 169 163 153 157 171 168 172 179 162 155 157 165 166 166 195 214 206 211 209 220 218 230 250
69 68 64 50 25 14 22 25 163 208 210 201 191 187 181 180 178 184 182 175 163 161 159 167 166 168 173 170 165 163 159 163 167 179 200 206 198 214 211 209 224 214 220
16 17 23 32 33 17 14 17 35 201 205 204 196 193 186 184 179 178 171 165 159 162 167 166 171 169 169 171 171 165 164 168 173 177 189 201 190 192 199 199 204 210 213
23 23 16 9 7 5 360 356 352 335 292 242 213 196 194 195 190 176 169 164 161 165 164 166 169 168 167 170 167 170 169 180 182 188 196 191 198 202 202 208 219 218 211
30 35 23 14 8 4 1 351 347 344 337 302 276 243 208 204 194 183 179 175 171 165 168 169 165 169 166 165 163 162 163 170 178 178 177 188 202 211 207 214 224 214 216
31 21 11 6 359 353 347 346 345 334 308 277 256 240 235 223 196 186 181 175 173 169 170 161 165 164 167 171 170 169 171 176 174 173 176 174 142 110 198 225 217 213 214
8 0 351 346 343 340 335 330 324 319 312 281 260 251 236 215 206 193 187 179 179 173 168 172 171 170 171 165 169 175 171 180 188 180 176 152 136 144 159 162 177 239 213
345 338 335 332 328 327 324 316 310 302 288 275 268 250 232 222 213 206 194 187 183 177 175 176 176 177 173 170 176 184 165 173 187 177 178 171 147 148 129 105 108 88 44
328 322 320 318 317 314 308 305 300 297 289 275 266 252 235 225 212 205 202 193 186 184 181 180 182 175 177 179 182 173 131 153 176 176 172 171 160 161 162 173 133 115 140
319 317 317 313 309 306 306 302 291 276 267 262 266 258 241 225 214 208 201 191 186 188 188 180 179 178 176 182 176 164 169 176 178 161 165 177 174 179 172 167 177 172 125
313 310 308 304 301 302 301 293 286 282 276 262 255 251 244 231 214 205 200 192 192 178 176 180 183 185 180 179 176 173 178 177 172 154 167 190 187 186 183 196 180 190 157
314 315 311 306 302 298 298 290 290 285 284 274 266 253 235 228 220 204 193 180 180 170 177 184 185 185 189 180 184 182 180 186 181 177 183 195 193 193 193 201 193 186 153
311 311 310 306 307 306 296 288 282 289 287 279 265 258 243 226 212 197 181 177 172 171 170 175 183 193 190 195 194 187 186 193 194 197 195 188 186 189 192 180 188 161 159
307 296 291 294 295 299 290 290 281 288 286 277 263 253 243 228 209 191 181 173 173 175 177 179 182 188 189 189 194 197 187 193 201 196 182 170 180 190 192 181 182 178 173
317 315 314 308 302 310 303 288 289 286 279 274 262 251 230 221 203 196 184 178 174 176 178 184 185 184 184 186 189 195 182 189 189 168 172 175 180 191 190 173 186 184 189
318 318 313 309 314 308 301 292 279 276 270 267 255 243 220 208 199 199 188 189 190 184 179 183 179 176 184 194 188 183 182 175 173 158 165 174 176 181 185 186 192 184 189
321 320 316 315 314 310 311 292 276 266 261 262 250 232 208 194 190 181 172 177 171 167 157 166 167 173 172 181 188 191 191 181 168 158 183 187 188 189 191 191 191 193 196